Home > Weather > Porta Westfalica > Past weeks

Flag for Germany Weather for the Past 2 Weeks in Porta Westfalica, North Rhine-Westphalia, Germany

Now
63 °F

Mild.


Feels Like: 63 °F
Forecast: 52 / 72 °F
Wind: 12 mph from East

Location: Bueckeburg

Current Time: May 5, 2016 at 8:19:36 PM

Latest Report: May 5, 2016 at 7:20 PM


Visibility: N/A

Pressure: 30.18 "Hg

Humidity: 49%

Dew Point: 43 °F

Location of Porta WestfalicaLocation

Historic Weather in Porta Westfalica — Graph

°F

Porta Westfalica Temperature Yesterday

Maximum temperature yesterday: 59 °F (at 6:20 PM)
Minimum temperature yesterday: 36 °F (at 3:20 AM)
Average temperature yesterday: 47 °F

High & Low Weather Summary for the Past Weeks

 TemperatureHumidityPressure
High68 °F (May 2, 4:20 PM)100% (Apr 21, 7:20 AM)30.42 "Hg (Apr 21, 7:20 AM)
Low32 °F (Apr 21, 6:20 AM)34% (May 4, 6:20 PM)29.39 "Hg (Apr 26, 1:20 PM)
Average45 °F74%30.00 "Hg
* Reported Apr 20 6:20 PM — May 5 6:20 PM, Porta Westfalica, Weather by CustomWeather, © 2016

Note: Actual official high and low records may vary slightly from our data, if they occured in-between our weather recording intervals... More about our weather records

Advertising

Porta Westfalica Weather History for the Previous 24 Hours

Scroll right to see more
 ConditionsComfort  
Time TempWeatherWind HumidityBarometerVisibility
6:20 PM
Thu, May 5
64 °FMild.13 mph43%30.21 "HgN/A
5:20 PM64 °FMild.13 mph43%30.21 "HgN/A
4:20 PM64 °FMild.13 mph40%30.24 "HgN/A
3:20 PM64 °FMild.9 mph43%30.27 "HgN/A
2:20 PM63 °FMild.8 mph42%30.27 "HgN/A
1:20 PM61 °FRefreshingly cool.5 mph42%30.30 "HgN/A
12:20 PM61 °FRefreshingly cool.6 mph42%30.33 "HgN/A
11:20 AM59 °FRefreshingly cool.8 mph45%30.33 "HgN/A
10:20 AM57 °FRefreshingly cool.8 mph41%30.36 "HgN/A
9:20 AM54 °FCool.2 mph63%30.36 "HgN/A
8:20 AM46 °FCool.2 mph76%30.36 "HgN/A
7:20 AM41 °FQuite cool.1 mph87%30.36 "HgN/A
6:20 AM36 °FChilly.2 mph93%30.36 "HgN/A
5:20 AM36 °FChilly.1 mph93%30.36 "HgN/A
4:20 AM37 °FChilly.5 mph87%30.36 "HgN/A
3:20 AM37 °FChilly.3 mph87%30.36 "HgN/A
2:20 AM39 °FChilly.2 mph87%30.36 "HgN/A
1:20 AM43 °FQuite cool.2 mph76%30.36 "HgN/A
12:20 AM43 °FQuite cool.3 mph76%30.39 "HgN/A
11:20 PM
Wed, May 4
45 °FQuite cool.3 mph71%30.39 "HgN/A
10:20 PM46 °FCool.3 mph66%30.39 "HgN/A
9:20 PM50 °FCool.2 mph62%30.36 "HgN/A
8:20 PM55 °FRefreshingly cool.3 mph41%30.36 "HgN/A
Weather by CustomWeather, © 2016

See weather overviewHow to use our weather pages